This is the latest recevied weather packets stored in our database for station/object N5DGC. If no packets are shown the sender has not sent any weather packets the latest 10 day(s).
| Time | Temp. | Humidity | Pressure | Rain* | Wind** | Luminosity | Snow |
|---|---|---|---|---|---|---|---|
| 1777748955 | 18.89° C | 31% | 1242.3 hPa | 0 mm | - | 731 W/m² | - |
| 1777748652 | 18.89° C | 32% | 1242.2 hPa | 0 mm | - | 760 W/m² | - |
| 1777748348 | 18.89° C | 31% | 1242.4 hPa | 0 mm | - | 897 W/m² | - |
| 1777748043 | 17.78° C | 33% | 1242.3 hPa | 0 mm | - | 973 W/m² | - |
| 1777747741 | 17.78° C | 35% | 1242.7 hPa | 0 mm | - | 981 W/m² | - |
| 1777747436 | 17.78° C | 34% | 1242.8 hPa | 0 mm | - | 1007 W/m² | - |
| 1777747133 | 17.78° C | 34% | 1242.7 hPa | 0 mm | - | 846 W/m² | - |
| 1777746829 | 18.89° C | 33% | 1242.8 hPa | 0 mm | - | 857 W/m² | - |
| 1777746524 | 18.33° C | 34% | 1242.9 hPa | 0 mm | - | 1020 W/m² | - |
| 1777746220 | 17.78° C | 35% | 1242.9 hPa | 0 mm | - | 887 W/m² | - |
| 1777745917 | 17.22° C | 37% | 1243 hPa | 0 mm | - | 667 W/m² | - |
| 1777745616 | 17.22° C | 39% | 1243 hPa | 0 mm | - | 774 W/m² | - |
| 1777745313 | 16.67° C | 38% | 1243 hPa | 0 mm | - | 989 W/m² | - |
| 1777745010 | 16.67° C | 37% | 1243 hPa | 0 mm | - | 814 W/m² | - |
| 1777744706 | 16.67° C | 37% | 1243.1 hPa | 0 mm | - | 767 W/m² | - |
| 1777744400 | 16.67° C | 37% | 1243.2 hPa | 0 mm | - | 807 W/m² | - |
| 1777744097 | 17.22° C | 36% | 1243.4 hPa | 0 mm | - | 825 W/m² | - |
| 1777743795 | 18.33° C | 34% | 1243.4 hPa | 0 mm | - | 512 W/m² | - |
| 1777743491 | 18.33° C | 34% | 1243.2 hPa | 0 mm | - | 663 W/m² | - |
| 1777743188 | 17.78° C | 36% | 1243.5 hPa | 0 mm | - | 944 W/m² | - |
| 1777742886 | 18.33° C | 35% | 1243.6 hPa | 0 mm | - | 945 W/m² | - |
| 1777742583 | 17.22° C | 37% | 1243.5 hPa | 0 mm | - | 925 W/m² | - |
| 1777742279 | 16.67° C | 38% | 1243.5 hPa | 0 mm | - | 913 W/m² | - |
| 1777741975 | 16.67° C | 39% | 1243.6 hPa | 0 mm | - | 875 W/m² | - |
| 1777741673 | 15.56° C | 41% | 1243.5 hPa | 0 mm | - | 919 W/m² | - |
* Rain latest hour (hover to see other rain measurements)
** Current wind speed in m/s (hover to see current wind gust speed)